Regional Weather Roundup
Issued by NWS

Home | Current Version | Previous Version | Graphics & Text | Print | Product List | Glossary On
Versions: 1 2 3 4 5 6 7 8 9 10 11 12 13 14 15 16 17 18 19 20 21 22 23 24 25 26 27 28 29 30 31 32 33 34 35 36 37 38 39 40 41 42 43 44 45 46 47 48 49 50
863
ASUS43 KMPX 282210
RWRMN
WEATHER ROUNDUP FOR MINNESOTA
NATIONAL WEATHER SERVICE TWIN CITIES/CHANHASSEN MN
500 PM CDT FRI APR 28 2017


NOTE: "FAIR" INDICATES FEW OR NO CLOUDS BELOW 12,000 FEET WITH NO
SIGNIFICANT WEATHER AND/OR OBSTRUCTIONS TO VISIBILITY. N/A MEANS
CURRENT SKY AND/OR WEATHER CONDITIONS ARE NOT AVAILABLE.

MNZ060>063-068>070-282300-
   Twin Cities Metro

CITY           SKY/WX    TMP DP  RH WIND       PRES   REMARKS
TWIN CITIES    CLOUDY    49  28  44 N10       29.94F
ST PAUL        CLOUDY    50  31  48 N10       29.95F
CRYSTAL        CLOUDY    50  27  40 N15       29.93F
BLAINE         PTSUNNY   52  28  40 NW8       29.94F
LAKEVILLE      MOSUNNY   48  30  49 NW6       29.94R
EDEN PRAIRIE   CLOUDY    50  30  46 N8        29.94S
SOUTH ST PAUL  CLOUDY    50  28  43 N6        29.94S
LAKE ELMO      FAIR      48  32  53 N6        29.96S
$$
MNZ001>005-007-008-013>017-022>024-027-028-282300-
   Northwest Minnesota

CITY           SKY/WX    TMP DP  RH WIND       PRES   REMARKS
BEMIDJI        SUNNY     47  16  29 NW12      29.98R
HALLOCK        SUNNY     55   3  12 N17       30.01R
ROSEAU         SUNNY     50  19  29 N10       30.01R
WARROAD        SUNNY     48  18  29 NW3       30.01S
THIEF RVR FALL SUNNY     50  13  22 N14       30.02R
CROOKSTON      SUNNY     54  23  30 N8G21     30.03R
FOSSTON        SUNNY     50  21  32 N14       30.01R
DETROIT LAKES  SUNNY     50  21  32 N9G22     30.01R
MOORHEAD       SUNNY     52  27  37 N16       30.03R
PARK RAPIDS    SUNNY     50  10  20 NW13      29.97R
MAHNOMEN       FAIR      49  24  36 N14G21    30.00R
$$
MNZ006-009>011-018-025>026-282300-
   North Central Minnesota

CITY           SKY/WX    TMP DP  RH WIND       PRES   REMARKS
BAUDETTE       SUNNY     46  23  40 N10       29.99R
FLAG ISLAND    SUNNY     43  19  39 NW10      30.00R
INTL FALLS     MOSUNNY   43  22  43 N9G21     29.98R
WASKISH        SUNNY     46  27  46 N9G17     29.99R
BIG FORK       MOSUNNY   48  25  40 N9G17     29.96R
LONGVILLE      SUNNY     48  16  27 W9G18     29.96R
GRAND RAPIDS   MOSUNNY   48  24  39 N15G24    29.95R
CRANE LAKE     CLOUDY    37  25  60 NW9G18    29.99R
ORR            PTSUNNY   41  21  45 NW8G21    29.94R
COOK           CLOUDY    43  25  49 NW12G18   29.96R
WALKER         FAIR      47  13  25 N10G18    29.97S
$$
MNZ012-019>021-037-282300-
   Northeast Minnesota

CITY           SKY/WX    TMP DP  RH WIND       PRES   REMARKS
DULUTH         PTSUNNY   47  26  44 N12       29.92R
ELY            PTSUNNY   37  25  60 NW14G20   29.94R
HIBBING        PTSUNNY   46  26  45 N17G24    29.93R
EVELETH        MOSUNNY   45  17  32 NW14      29.94R
DULUTH HARBOR  CLOUDY    50  28  43 N7        29.94R
TWO HARBORS    CLOUDY    50  28  43 N6        29.90R
SILVER BAY     PTSUNNY   46  27  46 N6        29.91R
GRAND MARAIS     N/A     39  29  67 CALM      29.93R
G MARAIS ARPRT CLOUDY    32  21  64 CALM      29.89R
$$
MNZ029>031-032-039>041-046>048-054>057-064-282300-
   West Central Minnesota

CITY           SKY/WX    TMP DP  RH WIND       PRES   REMARKS
FERGUS FALLS   CLOUDY    52  25  35 NW17G28   30.00S
WHEATON        CLOUDY    52  19  28 N13       30.03S
MORRIS         MOSUNNY   52  21  30 N15G21    29.99S
ALEXANDRIA     CLOUDY    51  20  29 N15       29.99R
ELBOW LAKE     FAIR      50  25  37 NW10      30.01R
WADENA         CLOUDY    52  21  30 N12G17    29.98R
GLENWOOD       CLOUDY    50  21  32 N12       29.98S
APPLETON       CLOUDY    54  18  24 N17       29.99R
BENSON         CLOUDY    54   3  13 NE13G18   30.00R
ORTONVILLE     CLOUDY    52  25  35 N20G25    30.00S
MADISON        CLOUDY    54  27  35 N13       29.99R
WILLMAR        FAIR      52  28  40 N12G21    29.97S
$$
MNZ033>034-036-042>043-049>051-058-059-282300-
   Central Minnesota

CITY           SKY/WX    TMP DP  RH WIND       PRES   REMARKS
ST CLOUD       CLOUDY    51  27  39 N13       29.95S
SAUK CENTRE    FAIR      49  22  33 N10       29.97S
PAYNESVILLE    CLOUDY    51  21  31 N9G17     29.97S
AITKIN         CLOUDY    54  16  22 NW9G16    29.94R
PINE RIVER     CLOUDY    48  23  37 NW7       30.01R
BRAINERD       CLOUDY    50  19  29 N12G17    29.97R
STAPLES        CLOUDY    52  10  19 N12       29.97R
LONG PRAIRIE   FAIR      50  18  27 NW10G17   29.96F
LITTLE FALLS   CLOUDY    50  18  27 NW10      29.96F
LITCHFIELD     MOSUNNY   52  28  40 NE8       29.96S
BUFFALO        MOSUNNY   51  27  40 N8        29.96S
MAPLE LAKE     MOSUNNY   51  28  41 N9        29.96F
HUTCHINSON     SUNNY     52  33  49 N7        29.96S
$$
MNZ037-044-045-052-053-282300-
   East Central Minnesota

CITY           SKY/WX    TMP DP  RH WIND       PRES   REMARKS
PRINCETON      MOSUNNY   52  25  35 N10G16    29.96R
MORA           CLOUDY    46  28  49 NW9       29.97S
CAMBRIDGE      MOSUNNY   52  32  46 N7G16     29.94S
RUSH CITY      CLOUDY    49  29  44 N7        29.95S
MOOSE LAKE     CLOUDY    52  27  37 N6        29.92S
HINCKLEY       FAIR      50  28  43 N8        29.94S
CLOQUET        MOSUNNY   50  18  27 NW15G24   29.92R
MCGREGOR       CLOUDY    50  25  37 NW8G17    29.94R
$$
MNZ071>073-080-081-089-090-097-098-282300-
   Southwest Minnesota

CITY           SKY/WX    TMP DP  RH WIND       PRES   REMARKS
MONTEVIDEO     PTSUNNY   52  23  32 NE17      29.97S
GRANITE FALLS  CLOUDY    55  28  35 N13       29.98S
CANBY          MOSUNNY   54  24  32 N14       29.99R
MARSHALL       CLOUDY    50  26  39 NE16      29.96R
REDWOOD FALLS  PTSUNNY   51  28  41 N14G21    29.95S
OLIVIA         MOSUNNY   50  30  46 N15       29.95S
PIPESTONE      CLOUDY    48  25  40 E9G21     29.96R
WINDOM         PTSUNNY   46  32  57 N9        29.95R
WORTHINGTON    CLOUDY    46  30  53 NE15G23   29.95R
JACKSON        CLOUDY    45  32  61 NE16      29.94R
TRACY          CLOUDY    50  33  52 NE16      29.96R
SLAYTON        CLOUDY    46  31  56 N14G20    29.96R
$$
MNZ065>067-074>077-082>085-091>093-282300-
   South Central Minnesota

CITY           SKY/WX    TMP DP  RH WIND       PRES   REMARKS
MANKATO        CLOUDY    47  30  51 N10       29.96R
NEW ULM        CLOUDY    48  30  49 NE9       29.95R
ST JAMES       CLOUDY    46  34  61 N6        29.96R
FAIRMONT       CLOUDY    46  33  60 N14       29.93S
GLENCOE        MOSUNNY   50  34  54 N10G16    29.94S
FARIBAULT      CLOUDY    46  30  53 NW3       29.95R
OWATONNA       CLOUDY    46  30  53 N5        29.94R
WASECA         CLOUDY    45  32  61 N7        29.95R
ALBERT LEA     CLOUDY    45  32  61 NE10      29.93S
$$
MNZ078>079-086>088-094>096-282300-
   Southeast Minnesota

CITY           SKY/WX    TMP DP  RH WIND       PRES   REMARKS
ROCHESTER      CLOUDY    45  33  63 N10       29.92R
RED WING       CLOUDY    48  27  43 NW3       29.93F
STANTON        CLOUDY    48  31  51 NE3       29.93S
DODGE CENTER   CLOUDY    45  32  61 N8        29.93S
WINONA         CLOUDY    46  34  61 NW7       29.93S
AUSTIN         CLOUDY    45  34  65 NE7       29.93R
PRESTON        CLOUDY    43  32  66 N6        29.93R
$$
ABBREVIATIONS USED IN REMARKS
   TC - TEMPERATURES IN CELSIUS
  WCI - WIND CHILL INDEX
   HX - HEAT INDEX
  VSB - VISIBILITY
$$




USA.gov is the U.S. government's official web portal to all federal, state and local government web resources and services.